Location: Muenchen
(48.1800°N, 11.5800°E)
Time: 13:27:07
(UTC+01:00)

ISS - All Passes

Search period start: 07 December 2016 00:00
Search period end: 17 December 2016 00:00
Orbit: 401 x 410 km, 51.6° (Epoch: 07 December)

Date Brightness Start Highest point End Pass type
(mag) Time Alt. Az. Time Alt. Az. Time Alt. Az.
07 Dec - 15:43:22 10° S 15:45:43 18° SE 15:48:05 10° E daylight
07 Dec - 17:18:33 10° WSW 17:21:51 87° SSE 17:25:11 10° ENE visible
07 Dec - 18:55:22 10° WNW 18:58:33 44° N 19:01:46 10° ENE visible
07 Dec - 20:32:04 10° WNW 20:35:23 63° NNE 20:38:40 10° E night (unlit)
07 Dec - 22:08:44 10° W 22:11:46 33° SW 22:14:47 10° SSE night (unlit)
08 Dec - 14:53:02 10° SSE 14:53:59 11° SE 14:54:55 10° ESE daylight
08 Dec - 16:26:39 10° SW 16:29:53 57° SSE 16:33:09 10° ENE daylight
08 Dec - 18:03:14 10° W 18:06:28 49° N 18:09:43 10° ENE visible
08 Dec - 19:40:04 10° WNW 19:43:18 50° N 19:46:33 10° E visible
08 Dec - 21:16:37 10° WNW 21:19:52 53° SSW 21:23:06 10° SE night (unlit)
08 Dec - 22:55:32 10° SW 22:55:45 10° SW 22:55:57 10° SW night (unlit)
09 Dec - 15:34:56 10° SSW 15:37:58 35° SE 15:41:02 10° ENE daylight
09 Dec - 17:11:06 10° W 17:14:23 60° NNW 17:17:40 10° ENE visible
09 Dec - 18:48:00 10° WNW 18:51:12 44° N 18:54:24 10° E visible
09 Dec - 20:24:34 10° WNW 20:27:53 83° SSW 20:31:12 10° ESE visible
09 Dec - 22:01:45 10° W 22:04:00 17° SW 22:06:14 10° S night (unlit)
10 Dec - 14:43:30 10° SSW 14:46:06 22° SE 14:48:44 10° E daylight
10 Dec - 16:19:01 10° WSW 16:22:19 81° NNW 16:25:39 10° ENE daylight
10 Dec - 17:55:53 10° WNW 17:59:04 43° N 18:02:16 10° ENE visible
10 Dec - 19:32:33 10° WNW 19:35:51 70° NNE 19:39:09 10° ESE visible
10 Dec - 21:09:17 10° W 21:12:10 27° SW 21:15:02 10° SSE night (unlit)
11 Dec - 13:52:37 10° SSE 13:54:18 13° SE 13:56:00 10° ESE daylight
11 Dec - 15:27:02 10° WSW 15:30:17 68° SSE 15:33:35 10° ENE daylight
11 Dec - 17:03:43 10° W 17:06:56 46° N 17:10:09 10° ENE visible
11 Dec - 18:40:30 10° WNW 18:43:46 54° NNE 18:47:01 10° E visible
11 Dec - 20:17:05 10° WNW 20:20:15 44° SSW 20:23:26 10° SE visible
12 Dec - 14:35:12 10° SW 14:38:20 42° SSE 14:41:28 10° ENE daylight
12 Dec - 16:11:33 10° W 16:14:48 55° NNW 16:18:04 10° ENE daylight
12 Dec - 17:48:25 10° WNW 17:51:37 46° N 17:54:50 10° E visible
12 Dec - 19:24:58 10° WNW 19:28:16 71° SSW 19:31:34 10° ESE visible
12 Dec - 21:02:27 10° WSW 21:04:17 14° SW 21:06:07 10° S night (unlit)
13 Dec - 13:43:36 10° SSW 13:46:24 26° SE 13:49:13 10° E daylight
13 Dec - 15:19:24 10° WSW 15:22:41 72° NNW 15:25:59 10° ENE daylight
13 Dec - 16:56:17 10° WNW 16:59:27 43° N 17:02:39 10° ENE visible
13 Dec - 18:32:54 10° WNW 18:36:13 80° NNE 18:39:31 10° ESE visible
13 Dec - 20:09:45 10° W 20:12:27 23° SW 20:15:07 10° SSE visible
14 Dec - 12:52:24 10° S 12:54:32 16° SE 12:56:40 10° E daylight
14 Dec - 14:27:19 10° WSW 14:30:36 80° SSE 14:33:54 10° ENE daylight
14 Dec - 16:04:06 10° W 16:07:16 45° N 16:10:29 10° ENE daylight
14 Dec - 17:40:49 10° WNW 17:44:06 59° NNE 17:47:22 10° E visible
14 Dec - 19:17:25 10° WNW 19:20:31 37° SW 19:23:36 10° SE visible
15 Dec - 13:35:23 10° SW 13:38:34 51° SSE 13:41:47 10° ENE daylight
15 Dec - 15:11:53 10° W 15:15:06 51° N 15:18:21 10° ENE daylight
15 Dec - 16:48:43 10° WNW 16:51:56 48° N 16:55:09 10° E visible
15 Dec - 18:25:15 10° WNW 18:28:31 60° SSW 18:31:47 10° SE visible
15 Dec - 20:03:16 10° WSW 20:04:27 12° SW 20:05:38 10° SSW visible
16 Dec - 12:43:38 10° SSW 12:46:34 31° SE 12:49:33 10° E daylight
16 Dec - 14:19:40 10° W 14:22:57 64° NNW 14:26:13 10° ENE daylight
16 Dec - 15:56:34 10° WNW 15:59:44 44° N 16:02:55 10° ENE daylight
16 Dec - 17:33:08 10° WNW 17:36:27 90° SSE 17:39:46 10° ESE visible
16 Dec - 19:10:10 10° W 19:12:36 19° SW 19:15:02 10° S visible
